Monte Santo, Brazil
Current Conditions -  °F | °C
As of 4:00 AM on Wednesday 26 Nov 2014 (Local Time) from SBPL Reporting Station
Scattered Clouds Scattered Clouds  
Wind Chill: 77°   Ceiling: Unl
Heat Index: 79°   Visibility: 6mi
Dew Point: 70°   Wind: 7mph
Humidity: 78%   Direction: 150°SSE
Pressure: 29.91"   Gusts: NA
Location:  10.44°S, 39.33°W
Report Text: SBPL 260700Z 15006KT 9999 SCT025 25/21 Q1013
Loading
Personal Weather Stations






























Interactive Weather Map New forecast layout! Learn more

10-Day Weather Forecast

Advertisements
Track Severe Weather on mobile